Location: Unspecified
(0.0000°N, 0.0000°E)
Time: 15:32:32
(UTC+00:00)

IRIDIUM 114 - Pass Details

Date: 15 November 2025
Orbit: 776 x 779 km, 86.4° (Epoch: 12 December)

Event Time Altitude Azimuth Distance (km) Brightness Sun altitude
Exits shadow 19:58:20 12° 167° (SSE) 2,219 6.8 -31.4°
Drops below altitude 10° 19:58:34 10° 168° (SSE) 2,312 6.9 -31.5°
Sets 20:01:00 0° 172° (S) 3,255 7.7 -32.0°
